Marshfield, WI

1:56 PM CDT on April 24, 2018 (GMT -0500)
Marshfield Municipal

Weather History for KMFI - December, 2012

Change the Weather History Date:

Monday, December 17, 2012

  Actual Average Record
Temperature  
Mean Temperature 24 °F -  
Max Temperature 26 °F 26 °F 47 °F (1939)
Min Temperature 21 °F 10 °F -19 °F (1919)
Degree Days  
Heating Degree Days 42    
Moisture  
Dew Point 19 °F    
Average Humidity 85    
Maximum Humidity 93    
Minimum Humidity 80    
Precipitation  
Precipitation 0.00 in - - ()
Sea Level Pressure  
Sea Level Pressure 29.74 in    
Wind  
Wind Speed 8 mph (NW)    
Max Wind Speed 14 mph    
Max Gust Speed 18 mph    
Visibility 10 miles    
Events      
Averages and records for this station are not official NWS values.
T = Trace of Precipitation, MM = Missing Value Source: NWS Daily Summary

Daily Weather History Graph

Daily Weather History Graph

Search for Another Location

Airport or City:

Astronomy

Dec. 17, 2012 Rise Set
Actual Time 7:32 AM CST 4:21 PM CST
Civil Twilight 6:59 AM CST 4:55 PM CST
Nautical Twilight 6:22 AM CST 5:32 PM CST
Astronomical Twilight 5:46 AM CST 6:07 PM CST
Moon 10:30 AM CST (12/17) 9:55 PM CST (12/17)
Length of Visible Light 9h 56m
Length of Day
8h 49m
Waxing Crescent, 25% of the Moon is Illuminated
Dec 17
Waxing Crescent
Dec 19
First Quarter
Dec 28
Full
Jan 4
Last Quarter
Jan 11
New

Hourly Weather History & Observations

Time (CST) Temp. Windchill Dew Point Humidity Pressure Visibility Wind Dir Wind Speed Gust Speed Precip Events Conditions
12:54 AM 26.1 °F 16.2 °F 24.1 °F 92% 29.73 in 6.0 mi West 10.4 mph - N/A   Overcast
1:54 AM 25.0 °F 13.1 °F 23.0 °F 92% 29.74 in 7.0 mi WNW 13.8 mph 18.4 mph N/A   Overcast
2:54 AM 24.1 °F 12.5 °F 21.0 °F 88% 29.74 in 9.0 mi WNW 12.7 mph - N/A   Overcast
3:54 AM 24.1 °F 13.1 °F 21.0 °F 88% 29.75 in 9.0 mi WNW 11.5 mph - N/A   Overcast
4:54 AM 23.0 °F 10.6 °F 19.9 °F 88% 29.74 in 10.0 mi NW 13.8 mph - N/A   Overcast
5:54 AM 21.9 °F 11.7 °F 19.9 °F 92% 29.75 in 10.0 mi NW 9.2 mph - N/A   Overcast
6:54 AM 21.9 °F 12.5 °F 19.9 °F 92% 29.78 in 10.0 mi WNW 8.1 mph - N/A   Overcast
7:54 AM 21.9 °F 13.4 °F 19.0 °F 89% 29.78 in 10.0 mi NNW 6.9 mph - N/A   Overcast
8:54 AM 21.9 °F 13.4 °F 19.0 °F 89% 29.77 in 10.0 mi NNW 6.9 mph - N/A   Overcast
9:54 AM 23.0 °F 13.1 °F 19.0 °F 85% 29.76 in 10.0 mi WNW 9.2 mph - N/A   Overcast
10:14 AM 21.2 °F 12.6 °F 19.4 °F 93% 29.71 in 10.0 mi NW 6.9 mph - N/A   Overcast
10:54 AM 23.0 °F 13.9 °F 19.0 °F 85% 29.76 in 10.0 mi NNW 8.1 mph - N/A   Overcast
11:54 AM 23.0 °F 12.4 °F 19.0 °F 85% 29.73 in 10.0 mi NW 10.4 mph - N/A   Overcast
12:54 PM 24.1 °F 14.4 °F 19.0 °F 81% 29.73 in 10.0 mi NW 9.2 mph - N/A   Overcast
1:54 PM 23.0 °F 18.4 °F 19.0 °F 85% 29.73 in 10.0 mi West 3.5 mph - N/A   Overcast
2:54 PM 23.0 °F 18.4 °F 19.0 °F 85% 29.72 in 10.0 mi West 3.5 mph - N/A   Overcast
3:54 PM 23.0 °F 18.4 °F 18.0 °F 81% 29.74 in 10.0 mi NW 3.5 mph - N/A   Overcast
6:54 PM 23.0 °F - 18.0 °F 81% 29.75 in 10.0 mi Calm Calm - N/A   Overcast
7:45 PM 23.0 °F 18.4 °F 17.6 °F 80% 29.69 in 10.0 mi NNW 3.5 mph - N/A   Overcast
7:54 PM 23.0 °F 18.4 °F 18.0 °F 81% 29.75 in 10.0 mi NNW 3.5 mph - N/A   Overcast
8:54 PM 23.0 °F 18.4 °F 18.0 °F 81% 29.75 in 10.0 mi WNW 3.5 mph - N/A   Overcast
9:33 PM 23.0 °F 18.4 °F 19.4 °F 86% 29.68 in 10.0 mi North 3.5 mph - N/A   Overcast
9:54 PM 24.1 °F 19.7 °F 19.0 °F 81% 29.75 in 10.0 mi WNW 3.5 mph - N/A   Overcast
10:16 PM 24.8 °F 20.5 °F 19.4 °F 80% 29.69 in 10.0 mi North 3.5 mph - N/A   Overcast
10:54 PM 24.1 °F - 19.0 °F 81% 29.75 in 10.0 mi Calm Calm - N/A   Overcast
11:54 PM 24.1 °F - 19.0 °F 81% 29.75 in 10.0 mi Calm Calm - N/A   Overcast